User: anonymous   Login
Location: Unspecified
(0.0000°N, 0.0000°E)
Time: 15:52:19
(UTC+00:00)
Language:

RS-4 - Orbit

View from above orbital plane
View from above orbital plane
View from above satellite
View from above satellite

Ground track
Ground track

The orbit data is extracted from the following two-line orbital elements,

1 12998U 81120B   22223.26585709 -.00000039  00000-0 -57395-3 0  9990
2 12998  82.9617 162.1687 0019922 114.4282  44.7521 12.03165565785085
Epoch (UTC): 11 August 2022 06:22:50
Eccentricity: 0.0019922
inclination: 82.9617°
perigee height: 1650 km
apogee height: 1683 km
right ascension of ascending node: 162.1687°
argument of perigee: 114.4282°
revolutions per day: 12.03165565
mean anomaly at epoch: 44.7521°
orbit number at epoch: 78508

The dashed part of the orbit path shows where the satellite is in the earth's shadow,  

DLR